DW5254 Weather Reports


time (UTC)temp
C
wind
direction
speed
KPH
gust
KPH
rain 1hr
cm
rain 24hr
cm
rain mn
cm
humidity
%
barometer
mb
20260905224514 33 345 4.8 12.9 0.00 0.10 0.00 64 1010.1
20260905223012 34 18 4.8 9.7 0.00 0.10 0.00 63 1010.1
20260905221512 35 346 3.2 8.0 0.00 0.10 0.00 60 1010.0
20260905220014 35 339 3.2 9.7 0.00 0.10 0.00 58 1010.1
20260905214509 36 9 1.6 6.4 0.00 0.10 0.00 56 1010.2
20260905203058 32 263 0.0 4.8 0.00 0.10 0.10 67 1010.8
20260905201653 31 175 1.6 6.4 0.00 0.10 0.10 68 1010.9
20260905200113 30 118 3.2 11.3 0.00 0.10 0.10 68 1011.1
20260905194551 30 73 1.6 11.3 0.05 0.10 0.10 71 1011.1
20260905193049 29 126 4.8 17.7 0.10 0.10 0.10 72 1011.4
20260905191549 26 99 0.0 8.0 0.10 0.10 0.10 87 1011.6
20260905190053 26 37 3.2 8.0 0.10 0.10 0.10 84 1011.8
20260905184551 28 338 12.9 29.0 0.05 0.05 0.05 71 1012.0
20260905183047 35 342 1.6 8.0 0.00 0.00 0.00 56 1011.4
20260905181545 36 350 8.0 14.5 0.00 0.00 0.00 55 1011.4
20260905180105 36 312 0.0 9.7 0.00 0.00 0.00 54 1011.5
20260905174541 36 340 4.8 12.9 0.00 0.00 0.00 54 1011.7
20260905173059 36 334 8.0 16.1 0.00 0.00 0.00 55 1011.9
20260905171550 35 343 0.0 11.3 0.00 0.00 0.00 56 1012.0
20260905170038 35 324 3.2 8.0 0.00 0.00 0.00 56 1012.1
20260905164536 35 323 1.6 12.9 0.00 0.00 0.00 56 1012.4
20260905163033 35 274 3.2 11.3 0.00 0.00 0.00 58 1012.4
20260905161530 34 324 3.2 9.7 0.00 0.00 0.00 58 1012.4
20260905160047 34 298 4.8 14.5 0.00 0.00 0.00 60 1012.4
20260905154527 33 325 6.4 16.1 0.00 0.00 0.00 61 1012.4
20260905153027 33 323 6.4 16.1 0.00 0.00 0.00 62 1012.4
20260905151522 33 316 3.2 11.3 0.00 0.00 0.00 64 1012.5
20260905150018 32 314 8.0 14.5 0.00 0.00 0.00 64 1012.6
20260905144524 32 333 3.2 9.7 0.00 0.00 0.00 66 1012.6
20260905143013 31 314 1.6 6.4 0.00 0.00 0.00 68 1012.4
20260905141512 31 319 1.6 6.4 0.00 0.00 0.00 68 1012.5
20260905140014 30 333 1.6 4.8 0.00 0.00 0.00 71 1012.6
20260905134503 29 309 4.8 6.4 0.00 0.00 0.00 72 1012.8
20260905133007 29 320 1.6 4.8 0.00 0.00 0.00 70 1012.8
20260905131559 28 68 0.0 0.0 0.00 0.00 0.00 76 1012.9
20260905130055 26 68 0.0 0.0 0.00 0.00 0.00 82 1012.9
20260905124555 24 68 0.0 0.0 0.00 0.00 0.00 87 1012.8
20260905123051 24 67 0.0 0.0 0.00 0.00 0.00 87 1012.8
20260905121551 24 68 0.0 0.0 0.00 0.00 0.00 87 1012.7
20260905120058 23 67 0.0 0.0 0.00 0.00 0.00 88 1012.6
20260905114559 23 68 0.0 0.0 0.00 0.00 0.00 89 1012.5
20260905113055 23 68 0.0 0.0 0.00 0.00 0.00 89 1012.4
20260905111632 23 67 0.0 0.0 0.00 0.00 0.00 88 1012.3
20260905110043 23 68 0.0 0.0 0.00 0.00 0.00 88 1012.2
20260905104542 23 67 0.0 0.0 0.00 0.00 0.00 87 1012.2
20260905103140 23 68 0.0 0.0 0.00 0.00 0.00 87 1012.4
20260905101542 24 68 0.0 0.0 0.00 0.00 0.00 85 1012.3
20260905100038 23 68 0.0 0.0 0.00 0.00 0.00 86 1012.2
20260905094537 24 68 0.0 0.0 0.00 0.00 0.00 84 1012.1
20260905093040 24 68 0.0 0.0 0.00 0.00 0.00 85 1012.0
20260905091536 24 68 0.0 0.0 0.00 0.00 0.00 85 1011.8
20260905090036 24 68 0.0 0.0 0.00 0.00 0.00 86 1011.8
20260905084534 24 68 0.0 0.0 0.00 0.00 0.00 86 1011.8
20260905083033 24 68 0.0 0.0 0.00 0.00 0.00 86 1011.9
20260905081533 23 80 0.0 0.0 0.00 0.00 0.00 87 1012.0
20260905080034 23 80 0.0 0.0 0.00 0.00 0.00 87 1012.1
20260905074528 24 81 0.0 0.0 0.00 0.00 0.00 86 1012.2
20260905073035 25 80 0.0 0.0 0.00 0.00 0.00 84 1012.2
20260905071525 25 80 0.0 0.0 0.00 0.00 0.00 84 1012.1
20260905070043 25 80 0.0 0.0 0.00 0.00 0.00 84 1012.1
20260905064537 25 82 0.0 0.0 0.00 0.00 0.00 83 1012.1
20260905063021 25 82 0.0 0.0 0.00 0.00 0.00 83 1012.1
20260905061520 25 82 0.0 0.0 0.00 0.00 0.00 83 1012.4
20260905060022 25 82 0.0 0.0 0.00 0.00 0.00 82 1012.3
20260905054531 25 82 0.0 0.0 0.00 0.00 0.00 82 1012.2
20260905053016 26 82 0.0 0.0 0.00 0.00 0.00 80 1012.3
20260905051522 26 82 0.0 0.0 0.00 0.00 0.00 79 1012.4
20260905050012 26 82 0.0 0.0 0.00 0.00 0.00 80 1012.3
20260905044512 26 82 0.0 0.0 0.00 0.00 0.00 79 1012.3
20260905043011 26 82 0.0 0.0 0.00 0.00 0.00 79 1012.4
20260905041511 26 82 0.0 0.0 0.00 0.00 0.00 78 1012.6
20260905040016 27 82 0.0 0.0 0.00 0.00 0.00 75 1012.6
20260905034522 28 83 0.0 0.0 0.00 0.00 0.00 72 1012.6
20260905033014 28 83 0.0 0.0 0.00 0.00 0.00 72 1012.5
20260905031508 28 82 0.0 0.0 0.00 0.00 0.00 71 1012.5
20260905030007 28 82 0.0 0.0 0.00 0.00 0.00 71 1012.3
20260905024509 28 83 0.0 0.0 0.00 0.00 0.00 70 1012.3
20260905023006 28 83 0.0 1.6 0.00 0.00 0.00 71 1012.2
20260905021508 28 83 0.0 0.0 0.00 0.00 0.00 71 1012.1
20260905020010 28 83 0.0 0.0 0.00 0.00 0.00 71 1012.1
20260905014504 28 82 0.0 0.0 0.00 0.00 0.00 72 1011.9
20260905013003 29 83 0.0 0.0 0.00 0.00 0.00 72 1011.9
20260905011503 30 83 0.0 0.0 0.00 0.00 0.00 70 1011.7
20260905010005 30 83 0.0 0.0 0.00 0.00 0.00 70 1011.6
20260905004502 30 83 0.0 0.0 0.00 0.00 0.00 68 1011.5
20260905003006 31 83 0.0 0.0 0.00 0.00 0.00 64 1011.5
20260905001502 32 83 0.0 0.0 0.00 0.00 0.00 61 1011.4
20260905000001 33 83 0.0 0.0 0.00 0.00 0.00 59 1011.4
20260904234607 33 83 0.0 0.0 0.00 0.00 0.00 58 1011.3
20260904233100 35 132 0.0 4.8 0.00 0.00 0.00 56 1011.2
20260904231602 35 214 0.0 4.8 0.00 0.00 0.00 52 1011.0
20260904230059 36 358 0.0 3.2 0.00 0.00 0.00 50 1011.1